Home > Weather > Lancy > Past weeks

Flag for Switzerland Weather for the Past 2 Weeks in Lancy, Geneva, Switzerland

Now
45 °F

Light rain. Passing clouds.


Feels Like: 42 °F
Forecast: 34 / 41 °F
Wind: 5 mph from West

Location: Geneva Cointrin Airport

Current Time: Feb 14, 2016 at 7:37:25 AM

Latest Report: Feb 14, 2016 at 7:20 AM


Visibility: N/A

Pressure: 29.15 "Hg

Humidity: 87%

Dew point: 41 °F

Location of LancyLocation

Historic Weather in Lancy — Graph

°F

Lancy Temperature Yesterday

Maximum temperature yesterday: 50 °F (at 3:50 PM)
Minimum temperature yesterday: 37 °F (at 6:20 AM)
Average temperature yesterday: 44 °F

High & Low Weather Summary for the Past Weeks

 TemperatureHumidityPressure
High59 °F (Feb 1, 2:20 PM)100% (Jan 30, 8:50 AM)30.54 "Hg (Jan 30, 8:50 AM)
Low28 °F (Feb 11, 6:50 AM)37% (Feb 9, 7:50 PM)29.18 "Hg (Feb 14, 5:50 AM)
Average42 °F80%29.98 "Hg
* Reported Jan 30 6:20 AM — Feb 14 6:20 AM, Lancy, Weather by CustomWeather, © 2016

Note: Actual official high and low records may vary slightly from our data, if they occured in-between our weather recording intervals... More about our weather records

Advertising

Lancy Weather History for the Previous 24 Hours

 ConditionsComfort  
Time TempWeatherWind HumidityBarometerVisibility
6:20 AM
Sun, Feb 14
43 °FScattered showers. Passing clouds.5 mph93%29.18 "HgN/A
5:50 AM43 °FScattered showers. Passing clouds.2 mph93%29.18 "HgN/A
5:20 AM45 °FLight rain. Passing clouds.2 mph87%29.21 "HgN/A
4:50 AM45 °FLight rain. Overcast.6 mph81%29.21 "HgN/A
4:20 AM45 °FLight rain. Overcast.7 mph81%29.21 "HgN/A
3:50 AM45 °FLight rain. Overcast.2 mph81%29.24 "HgN/A
3:20 AM45 °FLight rain. Passing clouds.1 mph87%29.24 "HgN/A
1:50 AM48 °FOvercast.8 mph66%29.30 "HgN/A
1:20 AM46 °FPassing clouds.9 mph71%29.30 "HgN/A
12:50 AM48 °FPassing clouds.12 mph66%29.30 "HgN/A
12:20 AM48 °FPartly cloudy.9 mph66%29.33 "HgN/A
11:50 PM
Sat, Feb 13
48 °FPassing clouds.12 mph66%29.33 "HgN/A
11:20 PM48 °FPartly cloudy.12 mph66%29.33 "HgN/A
10:50 PM48 °FPartly cloudy.18 mph66%29.33 "HgN/A
10:20 PM46 °FPartly cloudy.14 mph76%29.36 "HgN/A
9:50 PM45 °FPassing clouds.18 mph87%29.33 "HgN/A
9:20 PM48 °FSprinkles. Passing clouds.24 mph71%29.33 "HgN/A
8:50 PM50 °FSprinkles. Passing clouds.23 mph62%29.33 "HgN/A
8:20 PM48 °FSprinkles. Passing clouds.21 mph76%29.30 "HgN/A
7:50 PM48 °FScattered showers. Passing clouds.13 mph76%29.33 "HgN/A
7:20 PM48 °FPassing clouds.17 mph76%29.33 "HgN/A
6:50 PM46 °FSprinkles. Passing clouds.10 mph82%29.33 "HgN/A
6:20 PM45 °FPassing clouds.13 mph87%29.33 "HgN/A
5:50 PM46 °FStrong thunderstorms. Broken clouds.15 mph76%29.33 "Hg2 mi
5:20 PM45 °FThundershowers. Partly sunny.15 mph81%29.30 "HgN/A
4:50 PM45 °FThunderstorms. Broken clouds.15 mph81%29.33 "Hg3 mi
4:20 PM46 °FRain showers. Broken clouds.13 mph82%29.27 "HgN/A
3:50 PM50 °FSprinkles. Broken clouds.6 mph71%29.24 "Hg5 mi
3:20 PM46 °FSprinkles. Broken clouds.6 mph87%29.24 "HgN/A
2:50 PM45 °FSprinkles. Broken clouds.7 mph87%29.27 "HgN/A
2:20 PM45 °FRain showers. Broken clouds.10 mph81%29.30 "Hg4 mi
1:50 PM46 °FBroken clouds.13 mph76%29.27 "HgN/A
1:20 PM45 °FPartly sunny.12 mph76%29.33 "HgN/A
12:50 PM43 °FPartly sunny.13 mph81%29.33 "HgN/A
12:20 PM43 °FPartly sunny.12 mph81%29.36 "HgN/A
11:50 AM41 °FLight rain. Broken clouds.15 mph87%29.39 "Hg4 mi
11:20 AM41 °FLight rain. Broken clouds.17 mph81%29.39 "HgN/A
10:50 AM43 °FLight rain. Broken clouds.17 mph76%29.39 "HgN/A
10:20 AM43 °FLight rain. Broken clouds.10 mph76%29.39 "HgN/A
9:50 AM43 °FPartly sunny.8 mph76%29.39 "HgN/A
9:20 AM41 °FPartly sunny.9 mph81%29.39 "HgN/A
8:50 AM41 °FPartly sunny.6 mph81%29.42 "HgN/A
8:20 AM41 °FBroken clouds.9 mph76%29.42 "HgN/A
7:50 AM41 °FBroken clouds.8 mph76%29.42 "HgN/A
7:20 AM39 °FPassing clouds.8 mph81%29.42 "HgN/A
Weather by CustomWeather, © 2016

See weather overviewHow to use our weather pages